Weather Service Report


524 
ASUS45 KREV 300110
RWRNV 
NEVADA REGIONAL WEATHER ROUNDUP
NATIONAL WEATHER SERVICE RENO NV
600 PM PDT SAT AUG 29 2015

NOTE: "FAIR" INDICATES FEW OR NO CLOUDS BELOW 12,000 FEET WITH NO
SIGNIFICANT WEATHER AND/OR OBSTRUCTIONS TO VISIBILITY.

NVZ001-003-004-300200-
WESTERN NEVADA
  
CITY           SKY/WX    TMP DP  RH WIND       PRES   REMARKS
RENO           PTSUNNY   80  38  22 SW20G44   29.99F                  
CARSON CITY    FAIR      77  43  29 SW16G30   30.03S                  
MINDEN         CLOUDY    77  45  31 W17       30.04S                  
SLIDE MTN        N/A     50  39  66 W44         N/A                   
PYRAMID LAKE     N/A     81 N/A N/A SW31        N/A                   
FALLON         PTSUNNY   85  38  18 W32G45    29.89S BLWGDUST         
LOVELOCK       PTSUNNY   83  41  22 W35G43    29.91S                  
HAWTHORNE      SUNNY     91  34  13 SW14      29.88F                  
$$

NVZ002-CAZ072-073-300200-
NORTHERN AND CENTRAL SIERRA
  
CITY           SKY/WX    TMP DP  RH WIND       PRES   REMARKS
S. LAKE TAHOE  PTSUNNY   69  45  41 S15G38    30.13F                  
TRUCKEE        PTSUNNY   66  41  39 SW17G25   30.14S                  
SQUAW VLY 8000   N/A     54  41  62 SW15        N/A                   
SUSANVILLE     MOSUNNY   73  41  31 SW16G25   30.01S                  
BLUE CANYON    PTSUNNY   64  54  69 S9        30.16S                  
MAMMOTH LAKES  FAIR      72  37  28 NW13G23   30.22R                  
BRIDGEPORT     FAIR      70  41  34 S16G33    30.16S                  
$$

NVZ030-031-036-300200-
NORTHERN NEVADA
  
CITY           SKY/WX    TMP DP  RH WIND       PRES   REMARKS
ELKO           MOSUNNY   88  35  15 W16       29.91S                  
WINNEMUCCA     PTSUNNY   83  43  24 W16       29.92S                  
WENDOVER       PTSUNNY   95  39  14 S17       29.84F                  
$$

NVZ035-037-300200-
CENTRAL NEVADA
  
CITY           SKY/WX    TMP DP  RH WIND       PRES   REMARKS
ELY            PTSUNNY   85  35  16 S24G31    30.07S                  
EUREKA           N/A     88  24  10 S22G28    29.99F                  
$$

NVZ013-014-300200-
SOUTH CENTRAL NEVADA
  
CITY           SKY/WX    TMP DP  RH WIND       PRES   REMARKS
TONOPAH        PTSUNNY   89  27  10 S22G28    30.01S                  
$$

NVZ017-020-022-300200-
SOUTHERN NEVADA
  
CITY           SKY/WX    TMP DP  RH WIND       PRES   REMARKS
LAS VEGAS      MOSUNNY  103  41  12 SW15      29.76S                  
N. LAS VEGAS   SUNNY    104  43  12 W15G23    29.78S                  
NELLIS AFB     SUNNY    104  45  13 SW20      29.75S                  
HENDERSON      SUNNY    102  47  15 W16       29.83F                  
MERCURY        SUNNY     97  34  11 SW20G28   29.88F                  
$$

Return to Home page


Western Regional Climate Center, wrcc@dri.edu